Showing default

KINEIS-2E, 62931

Orbit data source: Space-Track

KINEIS-2E, 62931 is a French payload satellite in SSO that was launched on Sat, 08 Feb 2025 UTC via an ELECTRON launch vehicle from the Rocket Lab Launch Complex (RLLC). Payload-class satellites include a variety of spacecraft equipped with specific instruments for various scientific and technological missions. These include communications satellites like Starlink; space stations such as the ISS; scientific satellites like the Hubble; Earth observation satellites from companies like Planet Labs, Umbra, and HawkEye 360; GPS; miniature CubeSats for education and research; and military/defense satellites.

Loading next visibility...
Identifier
62931, 2025-028D
Orbit
SSO
Last TLE update
3 hours ago
Origin
Manufacturer
KINEIS
Mission
Operational Commercial Communications
Bus & Motor
CUBESAT 16U, Unknown motor
Mass
28 kg wet, 28 kg dry
Launch date (UTC)
2025-02-08 (3 months ago)
Launch vehicle
ELECTRON
Launch site
Rocket Lab Launch Complex (RLLC)
Object type
Payload
Rocket body
Debris
Shape & HBR
Box + 2 Pan + 1 Ant, 1.6 m
Radar Cross Section
0.229 m², Medium (>0.1 m² and < 1m²)

Expand to show TLE details & history

TLE from 3 hours ago
0 KINEIS-2E
1 62931U 25028D   25129.18630979  .00002274  00000-0  34191-3 0  9996
2 62931  97.9463 183.5636 0001786  85.2195 274.9218 14.75442661 13170
Epoch: 2025-05-09T04:28Z
Definitive object data (Epoch: 2025-05-09T04:28:17.165Z)
Latitude
-0.00007°
Longitude
-110.75398°
Altitude
646.653 km
Speed
7.535 km/s
True Right ascension
12h 14m 15s
True Declination
0° 00' 00"
Sunlit
Object was in full shadow at TLE epoch
Visualization TLE readout
Latitude
-33.17852°
Longitude
64.14392°
Altitude
657.056 km
Speed
7.527 km/s
Apparent Right ascension
01h 23m 29s
Apparent Declination
-38° 52' 20"
Sunlit
Object is in daylight
Visualization observer readout
Local Sidereal Time
15:12:41
Azimuth
95.984° ESE
Elevation
-68.958°
Doppler factor
1
Orbital elements
Apogee altitude
642.049 km
Perigee altitude
639.542 km
Semi-major axis
7,018.932 km
Eccentricity
0.0001786
Inclination
97.9463°
RAAN
183.5636°
Arg. of periapsis
85.2195°
True anomaly
274.90141°
Mean anomaly
274.9218°
Eccentric anomaly
274.9116°
Mean motion
3.69094 °/min
BSTAR
0.00034191
Orbital period
97.54 mins
Loading maneuver chart data...
Loading SW <> Apogee altitude chart data...
Loading historical data...
Loading historical data...
Loading historical data...
Loading historical data...
Loading historical data...
Loading historical data...
Loading historical data...

KINEIS-2E Visibility forecast

Observer location: undefined°, undefined°

Span
Click to sort rows by Start time (UTC) header in descending order
Start Az.
Max El. time (UTC)
Max El. Az.
Max El.
End time (UTC)
End Az.
8 mins2025-05-09 16:25:45.311Z14.097° NNE2025-05-09 16:29:45.311Z105.79° ESE44.86°2025-05-09 16:33:45.311Z191.471° SSW
7 mins2025-05-10 03:23:45.311Z151.893° SSE2025-05-10 03:26:45.311Z57.483° ENE42.144°2025-05-10 03:30:45.311Z353.765° N
|